This demonstration page uses our WeatherBlox Daily Observations layout. Learn more.

Left ArrowRight Arrow

Hourly Observations for October 8, 2021

Temp ( °F °C ) Dew Point ( °F °C ) Humidity (%) Winds ( mph kmh ) Pressure ( in mb ) Visibility ( mi km ) Precip ( " mm )
12:15 am 00:15 Clear 58 14.5 52 11.2 81 81 SE 3 6 29.92 1013 10 16 0.00 0.00
12:35 am 00:35 Clear 58 14.3 52 11.1 81 81 SE 3 6 29.93 1013 10 16 0.00 0.00
12:55 am 00:55 Clear 58 14.2 52 11.2 82 82 SE 5 7 29.93 1013 10 16 0.00 0.00
1:15 am 01:15 Clear 58 14.2 52 11.1 82 82 SE 5 7 29.92 1013 10 16 0.00 0.00
1:35 am 01:35 Clear 56 13.6 52 11.2 86 86 SE 8 13 29.91 1013 10 16 0.00 0.00
1:55 am 01:55 Clear 56 13.5 52 11.2 86 86 SE 7 11 29.91 1013 10 16 0.00 0.00
2:15 am 02:15 Clear 56 13.5 52 11.1 86 86 SE 5 7 29.91 1013 10 16 0.00 0.00
2:35 am 02:35 Clear 56 13.5 52 11.2 86 86 SSE 6 9 29.91 1013 10 16 0.00 0.00
2:55 am 02:55 Clear 57 14 52 11.1 83 83 S 5 7 29.91 1013 10 16 0.00 0.00
3:15 am 03:15 Clear 57 13.7 52 11 84 84 SSE 5 7 29.91 1013 10 16 0.00 0.00
3:35 am 03:35 Clear 56 13.3 52 11 86 86 S 5 7 29.90 1013 10 16 0.00 0.00
3:55 am 03:55 Clear 56 13.5 52 11 85 85 Calm 29.90 1013 10 16 0.00 0.00
4:15 am 04:15 Clear 56 13.1 51 10.8 86 86 SSE 5 7 29.90 1012 10 16 0.00 0.00
4:35 am 04:35 Clear 55 13 51 10.8 87 87 Calm 29.90 1012 10 16 0.00 0.00
4:55 am 04:55 Clear 53 11.9 51 10.3 90 90 Calm 29.91 1013 10 16 0.00 0.00
5:15 am 05:15 Clear 50 9.8 47 8.5 92 92 Calm 29.93 1014 10 16 0.00 0.00
5:35 am 05:35 Clear 49 9.7 48 8.9 95 95 Calm 29.94 1014 10 16 0.00 0.00
5:55 am 05:55 Clear 50 10.2 49 9.5 95 95 Calm 29.94 1014 10 16 0.00 0.00
6:15 am 06:15 Clear 50 9.9 48 9.1 95 95 Calm 29.94 1014 10 16 0.00 0.00
6:35 am 06:35 Clear 50 10.2 49 9.5 95 95 Calm 29.94 1014 10 16 0.00 0.00
6:55 am 06:55 Clear 50 10.1 49 9.4 95 95 Calm 29.95 1014 10 16 0.00 0.00
7:15 am 07:15 Clear 49 9.6 48 8.9 95 95 NNW 3 6 29.96 1014 10 16 0.00 0.00
7:35 am 07:35 Clear 50 10 49 9.5 97 97 Calm 29.96 1015 10 16 0.00 0.00
7:55 am 07:55 Sunny with Mist and Fog 48 9.1 47 8.5 96 96 N 3 6 29.97 1015 4 6 0.00 0.00
8:15 am 08:15 Sunny with Mist and Fog 51 10.3 50 9.8 97 97 Calm 29.96 1015 5 8 0.00 0.00
8:35 am 08:35 Sunny with Mist and Fog 52 11.1 51 10.6 97 97 Calm 29.96 1015 5 8 0.00 0.00
8:55 am 08:55 Sunny 55 12.7 53 11.8 94 94 N 3 6 29.95 1014 7 11 0.00 0.00
9:15 am 09:15 Sunny 58 14.3 55 12.6 90 90 NNE 3 6 29.94 1014 10 16 0.00 0.00
9:35 am 09:35 Sunny 61 15.9 55 12.9 83 83 N 5 7 29.92 1013 7 11 0.00 0.00
9:55 am 09:55 Sunny 63 17 56 13.3 79 79 N 3 6 29.91 1013 10 16 0.00 0.00
10:15 am 10:15 Sunny 65 18.3 56 13.6 74 74 NNE 5 7 29.90 1013 10 16 0.00 0.00
10:35 am 10:35 Sunny 68 20.1 56 13.6 66 66 NNE 7 11 29.89 1012 10 16 0.00 0.00
10:55 am 10:55 Sunny 72 22.2 55 12.7 55 55 NNE 12 19 29.88 1012 10 16 0.00 0.00
11:15 am 11:15 Sunny 75 23.7 55 12.5 50 50 NNE 8 13 29.87 1011 10 16 0.00 0.00
11:35 am 11:35 Sunny 76 24.4 54 12.4 47 47 NE 10 17 29.86 1011 10 16 0.00 0.00
11:55 am 11:55 Sunny 77 25.1 52 11.2 42 42 NNE 9 15 29.86 1011 10 16 0.00 0.00
12:15 pm 12:15 Sunny 78 25.6 53 11.5 41 41 NE 8 13 29.84 1011 10 16 0.00 0.00
12:55 pm 12:55 Sunny 80 26.5 50 10.2 36 36 NE 8 13 29.82 1010 10 16 0.00 0.00
1:15 pm 13:15 Sunny 81 27.1 51 10.4 35 35 ENE 5 7 29.81 1009 10 16 0.00 0.00
1:35 pm 13:35 Sunny 81 27.3 50 10 34 34 NE 3 6 29.80 1009 10 16 0.00 0.00
1:55 pm 13:55 Sunny 82 27.6 50 9.8 33 33 NE 3 6 29.79 1009 10 16 0.00 0.00
2:15 pm 14:15 Sunny 82 28 51 10.3 33 33 ENE 3 6 29.78 1009 10 16 0.00 0.00
2:35 pm 14:35 Sunny 83 28.3 50 9.9 32 32 NNE 3 6 29.77 1008 10 16 0.00 0.00
2:55 pm 14:55 Sunny 83 28.6 51 10.7 33 33 E 9 15 29.76 1008 10 16 0.00 0.00
3:15 pm 15:15 Sunny 84 28.7 50 10 31 31 E 5 7 29.76 1008 10 16 0.00 0.00
3:35 pm 15:35 Hazy 84 28.7 51 10.6 32 32 ENE 6 9 29.75 1007 5 8 0.00 0.00
3:55 pm 15:55 Hazy 83 28.4 52 11.1 34 34 ENE 7 11 29.75 1007 5 8 0.00 0.00
4:15 pm 16:15 Sunny 83 28.1 50 10 32 32 E 3 6 29.75 1008 10 16 0.00 0.00
4:35 pm 16:35 Sunny 84 28.7 50 10.2 32 32 ENE 3 6 29.74 1007 10 16 0.00 0.00
4:55 pm 16:55 Sunny 83 28.5 51 10.6 33 33 SSE 6 9 29.73 1007 10 16 0.00 0.00
5:15 pm 17:15 Sunny 84 28.7 50 10.1 31 31 SE 7 11 29.72 1006 10 16 0.00 0.00
5:35 pm 17:35 Sunny 83 28.5 51 10.5 33 33 SE 9 15 29.73 1007 10 16 0.00 0.00
5:55 pm 17:55 Sunny 79 26.2 51 10.4 37 37 ESE 7 11 29.74 1007 10 16 0.00 0.00
6:15 pm 18:15 Sunny 78 25.4 54 12.3 44 44 ESE 5 7 29.74 1007 10 16 0.00 0.00
6:35 pm 18:35 Sunny 78 25.6 55 12.7 45 45 ESE 5 7 29.75 1008 10 16 0.00 0.00
6:55 pm 18:55 Hazy 76 24.4 54 12.1 46 46 SE 6 9 29.76 1008 5 8 0.00 0.00
7:15 pm 19:15 Clear 74 23.6 54 12.1 49 49 SSE 5 7 29.78 1008 10 16 0.00 0.00
7:35 pm 19:35 Clear 69 20.5 54 12.3 59 59 SE 3 6 29.81 1010 7 11 0.00 0.00
7:55 pm 19:55 Clear 70 21.3 54 12.3 57 57 SE 3 6 29.81 1009 10 16 0.00 0.00
8:15 pm 20:15 Hazy 65 18.3 55 12.5 69 69 ESE 6 9 29.82 1010 5 8 0.00 0.00
8:35 pm 20:35 Hazy 67 19.6 55 12.6 64 64 SE 6 9 29.82 1010 5 8 0.00 0.00
8:55 pm 20:55 Clear 67 19.2 55 13 67 67 SE 5 7 29.81 1010 7 11 0.00 0.00
9:15 pm 21:15 Clear 67 19.7 55 12.7 64 64 SSE 5 7 29.81 1009 7 11 0.00 0.00
9:35 pm 21:35 Clear 66 18.7 55 12.7 68 68 Calm 29.82 1010 7 11 0.00 0.00
9:55 pm 21:55 Clear 65 18.2 55 12.6 70 70 SE 3 6 29.82 1010 7 11 0.00 0.00
10:15 pm 22:15 Clear 65 18.5 55 12.7 69 69 Calm 29.81 1009 7 11 0.00 0.00
10:35 pm 22:35 Clear 64 17.7 55 12.6 72 72 Calm 29.82 1010 7 11 0.00 0.00
10:55 pm 22:55 Clear 63 17.1 55 12.5 75 75 Calm 29.82 1010 7 11 0.00 0.00
11:15 pm 23:15 Clear 63 17.3 55 12.6 74 74 SE 5 7 29.82 1010 10 16 0.00 0.00
11:35 pm 23:35 Clear 63 17.1 55 12.6 75 75 SSE 3 6 29.81 1010 10 16 0.00 0.00
11:55 pm 23:55 Clear 61 16.3 55 12.7 79 79 SSE 5 7 29.82 1010 10 16 0.00 0.00

Powered by AerisWeather